GW3497 Weather Reports


time (UTC)temp
C
wind
direction
speed
KPH
gust
KPH
rain 1hr
cm
rain 24hr
cm
rain mn
cm
humidity
%
barometer
mb
20260904190748 16 251 3.2 8.0 0.00 0.28 0.28 75 1017.0
20260904190247 16 257 3.2 6.4 0.00 0.28 0.28 75 1016.9
20260904185745 16 255 4.8 11.3 0.00 0.28 0.28 75 1016.8
20260904185242 16 254 4.8 14.5 0.00 0.28 0.28 74 1016.7
20260904184740 16 285 4.8 14.5 0.00 0.28 0.28 74 1016.6
20260904184557 16 269 4.8 14.5 0.00 0.28 0.28 73 1016.6
20260904183739 17 258 3.2 11.3 0.00 0.28 0.28 73 1016.5
20260904183600 17 247 3.2 16.1 0.00 0.28 0.28 72 1016.3
20260904182738 17 283 8.0 16.1 0.00 0.28 0.28 72 1016.3
20260904182238 17 288 4.8 11.3 0.00 0.28 0.28 72 1016.3
20260904181748 17 250 4.8 17.7 0.00 0.28 0.28 72 1016.3
20260904181400 17 244 9.7 17.7 0.00 0.28 0.28 72 1016.2
20260904180235 17 248 4.8 24.1 0.00 0.28 0.28 71 1016.1
20260904180124 17 262 8.0 24.1 0.00 0.28 0.28 71 1016.0
20260904175234 17 275 6.4 16.1 0.00 0.28 0.28 71 1016.0
20260904174736 17 257 4.8 16.1 0.00 0.28 0.28 71 1015.9
20260904174231 17 259 4.8 19.3 0.00 0.28 0.28 70 1015.9
20260904173737 17 262 6.4 19.3 0.00 0.28 0.28 70 1015.8
20260904173548 17 250 6.4 14.5 0.00 0.28 0.28 70 1015.7
20260904172737 17 276 8.0 16.1 0.00 0.28 0.28 69 1015.5
20260904172234 17 306 6.4 16.1 0.00 0.28 0.28 69 1015.5
20260904171733 17 259 8.0 16.1 0.00 0.28 0.28 69 1015.4
20260904171230 17 295 4.8 14.5 0.00 0.28 0.28 68 1015.4
20260904170734 17 265 6.4 14.5 0.00 0.28 0.28 68 1015.5
20260904170243 17 252 6.4 19.3 0.00 0.28 0.28 68 1015.5
20260904165729 17 250 6.4 19.3 0.00 0.28 0.28 67 1015.4
20260904165412 17 251 3.2 16.1 0.00 0.28 0.28 67 1015.4
20260904165342 17 282 6.4 16.1 0.00 0.28 0.28 67 1015.4
20260904164228 17 282 6.4 20.9 0.00 0.28 0.28 66 1015.4
20260904163728 17 247 8.0 20.9 0.00 0.28 0.28 66 1015.3
20260904163227 17 275 6.4 16.1 0.00 0.28 0.28 66 1015.3
20260904162728 18 345 8.0 16.1 0.00 0.28 0.28 66 1015.2
20260904162230 18 285 8.0 16.1 0.00 0.28 0.28 67 1015.0
20260904161726 18 275 4.8 16.1 0.00 0.28 0.28 66 1015.0
20260904161223 18 272 6.4 22.5 0.00 0.28 0.28 66 1015.0
20260904160723 18 255 11.3 22.5 0.00 0.28 0.28 65 1015.0
20260904160222 18 264 9.7 17.7 0.00 0.28 0.28 66 1015.0
20260904155727 18 305 6.4 16.1 0.00 0.28 0.28 67 1014.9
20260904155222 18 255 8.0 16.1 0.00 0.28 0.28 67 1014.8
20260904154838 18 266 9.7 19.3 0.00 0.28 0.28 66 1014.5
20260904154816 18 254 9.7 17.7 0.00 0.28 0.28 66 1014.6
20260904154114 18 258 9.7 19.3 0.00 0.28 0.28 66 1014.5
20260904153218 18 293 11.3 22.5 0.00 0.28 0.28 66 1014.6
20260904152718 18 258 11.3 22.5 0.00 0.28 0.28 66 1014.6
20260904152234 18 257 11.3 19.3 0.00 0.28 0.28 66 1014.6
20260904151720 18 248 9.7 20.9 0.00 0.28 0.28 67 1014.6
20260904151215 18 261 6.4 25.7 0.00 0.28 0.28 67 1014.6
20260904150714 18 272 14.5 29.0 0.00 0.28 0.28 66 1014.8
20260904150215 18 261 14.5 29.0 0.00 0.28 0.28 66 1014.9
20260904145715 18 269 12.9 22.5 0.00 0.28 0.28 65 1014.8
20260904145212 18 231 11.3 22.5 0.00 0.28 0.28 66 1014.5
20260904144716 18 266 9.7 22.5 0.00 0.28 0.28 66 1014.5
20260904144212 18 268 9.7 24.1 0.00 0.28 0.28 65 1014.5
20260904144044 18 285 17.7 24.1 0.00 0.28 0.28 65 1014.3
20260904143212 18 250 6.4 20.9 0.00 0.28 0.28 67 1014.4
20260904142708 18 295 12.9 24.1 0.00 0.28 0.28 66 1014.4
20260904142207 18 310 14.5 25.7 0.00 0.28 0.28 66 1014.4
20260904141709 18 248 9.7 25.7 0.00 0.28 0.28 67 1014.3
20260904141216 18 252 9.7 25.7 0.00 0.28 0.28 67 1014.2
20260904141046 18 262 16.1 25.7 0.00 0.28 0.28 67 1014.2
20260904140529 18 272 9.7 25.7 0.00 0.28 0.28 66 1014.2
20260904140149 18 300 12.9 25.7 0.00 0.28 0.28 67 1014.2
20260904135156 18 319 9.7 25.7 0.00 0.28 0.28 68 1014.3
20260904134659 18 269 9.7 25.7 0.00 0.28 0.28 68 1014.2
20260904134156 18 302 12.9 22.5 0.00 0.28 0.28 68 1014.3
20260904133657 18 309 9.7 22.5 0.00 0.28 0.28 70 1014.3
20260904133154 18 269 12.9 27.4 0.00 0.28 0.28 69 1014.4
20260904132652 18 292 11.3 27.4 0.00 0.28 0.28 69 1014.4
20260904132152 18 312 6.4 19.3 0.00 0.28 0.28 71 1014.4
20260904131657 17 258 9.7 19.3 0.00 0.28 0.28 70 1014.3
20260904131152 17 252 9.7 22.5 0.00 0.28 0.28 69 1014.3
20260904130953 17 307 12.9 24.1 0.00 0.28 0.28 69 1014.1
20260904130156 17 305 8.0 24.1 0.00 0.28 0.28 69 1014.2
20260904125655 17 265 12.9 25.7 0.00 0.28 0.28 69 1013.9
20260904125448 17 286 14.5 25.7 0.00 0.28 0.28 70 1013.8
20260904124652 18 244 11.3 22.5 0.00 0.28 0.28 71 1013.8
20260904124149 18 275 8.0 17.7 0.00 0.28 0.28 75 1013.9
20260904123654 17 278 8.0 29.0 0.00 0.28 0.28 75 1013.7
20260904123158 17 312 9.7 29.0 0.00 0.28 0.28 75 1013.6
20260904122652 17 296 12.9 22.5 0.00 0.28 0.28 76 1013.6
20260904122148 17 300 9.7 24.1 0.00 0.28 0.28 75 1013.3
20260904121649 17 269 12.9 24.1 0.00 0.28 0.28 75 1013.2
20260904121148 17 275 11.3 20.9 0.00 0.28 0.28 77 1013.4
20260904120651 17 286 9.7 25.7 0.00 0.28 0.28 80 1013.5
20260904120156 17 262 8.0 25.7 0.00 0.28 0.28 80 1013.4
20260904115650 17 290 6.4 20.9 0.00 0.28 0.28 82 1013.4
20260904115147 17 282 11.3 24.1 0.00 0.28 0.28 81 1013.2
20260904114648 17 286 11.3 24.1 0.00 0.28 0.28 81 1013.3
20260904114151 17 286 9.7 24.1 0.00 0.28 0.28 81 1013.2
20260904113649 17 307 9.7 24.1 0.00 0.28 0.28 80 1013.0
20260904113147 17 245 9.7 25.7 0.00 0.28 0.28 81 1012.8
20260904112943 17 306 9.7 25.7 0.00 0.28 0.28 81 1012.9
20260904112147 17 327 11.3 20.9 0.00 0.28 0.28 82 1012.8
20260904111650 17 226 6.4 19.3 0.00 0.28 0.28 83 1012.7
20260904111146 17 252 12.9 20.9 0.00 0.28 0.28 84 1012.9
20260904110647 17 338 12.9 25.7 0.00 0.28 0.28 84 1012.8
20260904110147 17 269 11.3 25.7 0.00 0.28 0.28 84 1012.5
20260904105647 17 241 9.7 20.9 0.00 0.28 0.28 84 1012.5
20260904105439 17 266 6.4 27.4 0.00 0.28 0.28 84 1012.5
20260904104649 17 295 9.7 27.4 0.00 0.28 0.28 83 1012.8
20260904104148 17 305 9.7 25.7 0.00 0.28 0.28 84 1012.7
20260904103643 17 274 12.9 22.5 0.00 0.28 0.28 85 1012.5
20260904103143 17 286 11.3 29.0 0.00 0.28 0.28 84 1012.6
20260904102642 17 283 14.5 29.0 0.00 0.28 0.28 86 1012.5
20260904102142 17 279 8.0 24.1 0.00 0.28 0.28 87 1012.5
20260904101642 17 286 6.4 24.1 0.03 0.28 0.28 88 1012.6
20260904101325 17 292 12.9 24.1 0.03 0.28 0.28 89 1012.5
20260904101252 17 279 8.0 20.9 0.03 0.28 0.28 89 1012.5
20260904100434 17 283 12.9 24.1 0.03 0.28 0.28 90 1012.5
20260904095634 17 288 16.1 24.1 0.03 0.25 0.28 91 1012.2
20260904095135 17 245 11.3 17.7 0.03 0.25 0.28 91 1012.1
20260904094633 17 248 8.0 19.3 0.03 0.25 0.28 92 1011.9
20260904094144 17 292 8.0 19.3 0.03 0.25 0.28 92 1011.8
20260904093634 17 265 8.0 16.1 0.03 0.25 0.28 92 1011.9
20260904093128 17 299 4.8 11.3 0.03 0.25 0.28 92 1011.9
20260904092630 17 252 4.8 16.1 0.03 0.25 0.28 93 1011.7
20260904092127 17 259 8.0 20.9 0.03 0.25 0.28 92 1011.6
20260904091630 17 252 9.7 20.9 0.00 0.25 0.25 92 1011.6
20260904091126 16 0.0 0.0 0.00 0.25 0.25 92 1011.8
20260904090625 16 0.0 0.0 0.00 0.25 0.25 92 1011.8
20260904090131 16 0.0 0.0 0.00 0.25 0.25 92 1011.6
20260904085621 16 0.0 0.0 0.00 0.25 0.25 92 1011.4
20260904085121 16 0.0 0.0 0.00 0.25 0.25 91 1011.4
20260904084621 16 0.0 0.0 0.00 0.25 0.25 91 1011.5
20260904084126 16 0.0 0.0 0.00 0.25 0.25 92 1011.4
20260904083614 16 0.0 0.0 0.03 0.25 0.25 92 1011.3
20260904083115 16 0.0 0.0 0.03 0.25 0.25 92 1011.2
20260904082614 16 0.0 0.0 0.03 0.25 0.25 92 1011.1
20260904082116 16 0.0 0.0 0.03 0.25 0.25 93 1011.0
20260904081610 16 0.0 0.0 0.03 0.25 0.25 93 1010.9
20260904081113 16 0.0 0.0 0.05 0.25 0.25 92 1010.8
20260904080624 16 0.0 0.0 0.10 0.25 0.25 93 1010.9
20260904080110 16 0.0 0.0 0.23 0.25 0.25 93 1011.0
20260904075607 16 0.0 0.0 0.25 0.03 0.25 92 1011.0
20260904075107 16 0.0 0.0 0.25 0.03 0.25 92 1011.0
20260904074810 16 0.0 0.0 0.25 0.03 0.25 92 1010.7
20260904074548 16 0.0 0.0 0.25 0.03 0.25 92 1011.0
20260904073105 16 0.0 0.0 0.23 0.03 0.23 92 1010.8
20260904072601 16 0.0 0.0 0.23 0.03 0.23 92 1010.6
20260904072111 16 0.0 0.0 0.23 0.03 0.23 91 1010.5
20260904071601 17 0.0 0.0 0.23 0.03 0.23 90 1010.7
20260904071101 17 0.0 0.0 0.23 0.03 0.23 89 1010.6
20260904070556 18 0.0 0.0 0.15 0.03 0.05 92 1010.6
20260904070124 18 0.0 0.0 0.03 0.03 0.03 92 1009.4
20260904065557 18 0.0 0.0 0.00 0.00 0.00 92 1009.3
20260904065053 18 0.0 0.0 0.00 0.00 0.00 91 1009.2
20260904064553 18 0.0 0.0 0.00 0.00 0.00 91 1009.2
20260904064049 18 0.0 0.0 0.00 0.00 0.00 91 1009.2
20260904063549 19 0.0 0.0 0.00 0.00 0.00 91 1009.2
20260904063057 19 0.0 0.0 0.00 0.00 0.00 90 1009.2
20260904062548 19 0.0 0.0 0.00 0.00 0.00 90 1009.2
20260904062046 19 0.0 0.0 0.00 0.00 0.00 89 1009.4
20260904061702 19 0.0 0.0 0.00 0.00 0.00 88 1009.3
20260904061635 19 0.0 0.0 0.00 0.00 0.00 89 1009.3
20260904060544 20 0.0 0.0 0.00 0.00 0.00 87 1009.3
20260904060422 20 0.0 0.0 0.00 0.00 0.00 87 1009.3
20260904055539 20 0.0 0.0 0.00 0.00 0.00 87 1009.3
20260904055345 20 0.0 0.0 0.00 0.00 0.00 87 1009.3
20260904054537 19 0.0 0.0 0.00 0.00 0.00 87 1009.2
20260904054048 19 0.0 0.0 0.00 0.00 0.00 87 1009.2
20260904053830 19 0.0 0.0 0.00 0.00 0.00 87 1009.2
20260904053404 19 0.0 0.0 0.00 0.00 0.00 87 1009.2
20260904052534 19 0.0 0.0 0.00 0.00 0.00 87 1009.2
20260904052048 19 0.0 0.0 0.00 0.00 0.00 87 1009.3
20260904051534 19 0.0 0.0 0.00 0.00 0.00 88 1009.5
20260904051044 19 0.0 0.0 0.00 0.00 0.00 87 1009.5
20260904050829 19 0.0 0.0 0.00 0.00 0.00 88 1009.4
20260904050107 19 0.0 0.0 0.00 0.00 0.00 88 1009.5
20260904045526 19 0.0 0.0 0.00 0.00 0.00 89 1009.5
20260904045032 19 0.0 0.0 0.00 0.00 0.00 89 1009.6
20260904044527 19 0.0 0.0 0.00 0.00 0.00 89 1009.6
20260904044037 19 0.0 0.0 0.00 0.00 0.00 89 1009.6
20260904043815 19 0.0 0.0 0.00 0.00 0.00 89 1009.6
20260904043158 19 0.0 0.0 0.00 0.00 0.00 89 1009.9
20260904043131 19 0.0 0.0 0.00 0.00 0.00 89 1009.8
20260904042036 19 0.0 0.0 0.00 0.00 0.00 88 1010.0
20260904041524 19 0.0 0.0 0.00 0.00 0.00 88 1009.9
20260904041033 19 0.0 0.0 0.00 0.00 0.00 88 1010.1
20260904040524 19 0.0 0.0 0.00 0.00 0.00 88 1010.1
20260904040101 19 0.0 0.0 0.00 0.00 0.00 87 1010.1
20260904035525 19 0.0 0.0 0.00 0.00 0.00 87 1010.2
20260904035038 19 0.0 0.0 0.00 0.00 0.00 87 1010.2
20260904034529 19 0.0 0.0 0.00 0.00 0.00 87 1010.3
20260904034036 19 250 16.1 24.1 0.00 0.00 0.00 87 1010.3
20260904033525 19 250 16.1 30.6 0.00 0.00 0.00 87 1010.2
20260904033046 19 235 14.5 30.6 0.00 0.00 0.00 87 1010.3
20260904032524 19 227 14.5 32.2 0.00 0.00 0.00 87 1010.5
20260904032039 19 221 14.5 32.2 0.00 0.00 0.00 87 1010.5
20260904031527 19 245 17.7 27.4 0.00 0.00 0.00 87 1010.5
20260904031038 19 243 16.1 27.4 0.00 0.00 0.00 86 1010.5
20260904030521 19 204 16.1 29.0 0.00 0.00 0.00 86 1010.5
20260904030105 19 264 14.5 37.0 0.00 0.00 0.00 86 1010.7
20260904025810 19 257 20.9 37.0 0.00 0.00 0.00 86 1010.7
20260904025035 19 233 16.1 30.6 0.00 0.00 0.00 86 1010.9
20260904024521 19 257 17.7 30.6 0.00 0.00 0.00 86 1011.0
20260904024033 19 234 12.9 24.1 0.00 0.00 0.00 86 1011.2
20260904023519 19 206 12.9 27.4 0.00 0.00 0.00 86 1011.1
20260904023041 19 234 12.9 27.4 0.00 0.00 0.00 86 1011.1
20260904022806 19 233 11.3 29.0 0.00 0.00 0.00 86 1011.2
20260904022030 19 237 11.3 30.6 0.00 0.00 0.00 86 1011.3
20260904021519 19 217 17.7 32.2 0.00 0.00 0.00 86 1011.3
20260904021320 19 192 14.5 32.2 0.00 0.00 0.00 86 1011.1
20260904020517 19 224 16.1 27.4 0.00 0.00 0.00 86 1011.4
20260904020406 19 230 16.1 27.4 0.00 0.00 0.00 86 1011.5
20260904015518 18 237 16.1 37.0 0.00 0.00 0.00 86 1011.5
20260904015318 18 258 16.1 37.0 0.00 0.00 0.00 86 1011.6
20260904014522 18 230 16.1 30.6 0.00 0.00 0.00 86 1011.3
20260904014030 18 188 14.5 30.6 0.00 0.00 0.00 86 1011.6
20260904013807 18 172 12.9 27.4 0.00 0.00 0.00 86 1011.8
20260904013329 18 219 14.5 27.4 0.00 0.00 0.00 86 1011.8
20260904012518 18 219 14.5 24.1 0.00 0.00 0.00 86 1011.9
20260904012029 18 235 9.7 24.1 0.00 0.00 0.00 86 1012.0
20260904011808 18 259 11.3 29.0 0.00 0.00 0.00 86 1012.0
20260904011030 18 237 14.5 33.8 0.00 0.00 0.00 86 1012.0
20260904010516 18 233 16.1 38.6 0.00 0.00 0.00 86 1012.1
20260904010050 18 272 19.3 38.6 0.00 0.00 0.00 87 1012.2
20260904005514 18 240 9.7 30.6 0.00 0.00 0.00 87 1012.1
20260904005316 18 257 17.7 30.6 0.00 0.00 0.00 87 1012.2
20260904004520 18 238 12.9 30.6 0.00 0.00 0.00 87 1012.5
20260904004026 18 224 12.9 30.6 0.00 0.00 0.00 87 1012.4
20260904003513 18 266 16.1 30.6 0.00 0.00 0.00 87 1012.5
20260904003227 18 220 14.5 37.0 0.00 0.00 0.00 87 1012.4
20260904003112 18 219 16.1 30.6 0.00 0.00 0.00 87 1012.3
20260904002033 18 228 17.7 37.0 0.00 0.00 0.00 87 1012.5
20260904001522 18 227 14.5 24.1 0.00 0.00 0.00 87 1012.8
20260904001027 18 265 11.3 27.4 0.00 0.00 0.00 87 1012.9
20260904000512 18 235 16.1 33.8 0.00 0.00 0.00 87 1013.0
20260904000044 18 220 19.3 33.8 0.00 0.00 0.00 87 1012.9
20260903235511 18 224 12.9 32.2 0.00 0.00 0.00 87 1013.2
20260903235025 18 219 14.5 27.4 0.00 0.00 0.00 86 1013.3
20260903234516 18 224 14.5 27.4 0.00 0.00 0.00 86 1013.3
20260903234030 18 251 14.5 25.7 0.00 0.00 0.00 86 1013.4
20260903233512 18 214 12.9 25.7 0.00 0.00 0.00 85 1013.3
20260903233035 18 268 9.7 24.1 0.00 0.00 0.00 85 1013.4
20260903232512 18 245 9.7 24.1 0.00 0.00 0.00 84 1013.4
20260903232024 18 282 12.9 22.5 0.00 0.00 0.00 84 1013.6
20260903231804 18 237 11.3 24.1 0.00 0.00 0.00 84 1013.7
20260903231026 18 233 12.9 24.1 0.00 0.00 0.00 83 1013.6
20260903230512 18 247 11.3 25.7 0.00 0.00 0.00 83 1013.8
20260903230050 18 251 12.9 25.7 0.00 0.00 0.00 84 1014.0
20260903225517 18 255 11.3 20.9 0.00 0.00 0.00 84 1014.2
20260903225038 18 231 8.0 17.7 0.00 0.00 0.00 84 1014.3
20260903224525 18 257 8.0 17.7 0.00 0.00 0.00 83 1014.2
20260903224032 18 251 9.7 17.7 0.00 0.00 0.00 83 1014.3
20260903223518 18 223 9.7 17.7 0.00 0.00 0.00 82 1014.3
20260903223241 18 257 9.7 20.9 0.00 0.00 0.00 82 1014.4
20260903222932 18 251 11.3 24.1 0.00 0.00 0.00 82 1014.5
20260903221500 19 254 9.7 22.5 0.00 0.00 0.00 82 1014.5
20260903220959 19 248 14.5 22.5 0.00 0.00 0.00 82 1014.4
20260903220456 19 250 12.9 22.5 0.00 0.00 0.00 82 1014.5
20260903215958 19 248 12.9 27.4 0.00 0.00 0.00 82 1014.6
20260903215457 19 272 11.3 27.4 0.00 0.00 0.00 83 1014.5
20260903214959 19 255 11.3 27.4 0.00 0.00 0.00 83 1014.5
20260903214457 19 254 12.9 27.4 0.00 0.00 0.00 83 1014.5
20260903213959 19 243 11.3 27.4 0.00 0.00 0.00 82 1014.4
20260903213458 19 240 14.5 27.4 0.00 0.00 0.00 82 1014.8
20260903212957 19 261 12.9 27.4 0.00 0.00 0.00 82 1014.9
20260903212456 20 278 9.7 24.1 0.00 0.00 0.00 82 1015.0
20260903211957 20 233 9.7 33.8 0.00 0.00 0.00 82 1015.2
20260903211457 20 285 14.5 33.8 0.00 0.00 0.00 81 1015.3
20260903210957 20 268 11.3 25.7 0.00 0.00 0.00 81 1015.2
20260903210457 20 259 9.7 24.1 0.00 0.00 0.00 81 1015.2
20260903205956 20 265 8.0 17.7 0.00 0.00 0.00 80 1015.2
20260903205459 20 244 8.0 14.5 0.00 0.00 0.00 80 1015.3
20260903204956 20 281 4.8 16.1 0.00 0.00 0.00 80 1015.2
20260903204455 20 262 6.4 16.1 0.00 0.00 0.00 80 1015.1
20260903203955 20 261 4.8 14.5 0.00 0.00 0.00 80 1015.2
20260903203455 20 269 6.4 14.5 0.00 0.00 0.00 80 1015.1
20260903202950 20 245 4.8 14.5 0.00 0.00 0.00 80 1015.1
20260903202454 20 281 6.4 11.3 0.00 0.00 0.00 79 1015.1
20260903201952 20 269 6.4 11.3 0.00 0.00 0.00 79 1015.1
20260903201809 20 254 6.4 11.3 0.00 0.00 0.00 79 1015.2
20260903200949 20 243 6.4 14.5 0.00 0.00 0.00 79 1015.2
20260903200452 20 258 6.4 14.5 0.00 0.00 0.00 78 1015.2
20260903195950 20 262 4.8 16.1 0.00 0.00 0.00 78 1015.2
20260903195448 20 245 4.8 16.1 0.00 0.00 0.00 78 1015.2
20260903194947 20 251 3.2 11.3 0.00 0.00 0.00 77 1015.3
20260903194502 20 259 4.8 11.3 0.00 0.00 0.00 77 1015.5
20260903193949 20 272 3.2 9.7 0.00 0.00 0.00 76 1015.4
20260903193447 20 259 4.8 9.7 0.00 0.00 0.00 76 1015.3
20260903192948 20 250 4.8 9.7 0.00 0.00 0.00 75 1015.3
20260903192446 20 285 4.8 11.3 0.00 0.00 0.00 75 1015.4
20260903192319 20 237 4.8 11.3 0.00 0.00 0.00 75 1015.4
20260903191443 21 257 4.8 9.7 0.00 0.00 0.00 74 1015.5